Tracking 31027 objects as of 19-Jul-2025
HD Live streaming from Space Station
objects crossing your sky now

THOR ABLESTAR DEB

Track THOR ABLESTAR DEB now!
10-day predictions


NORAD ID: 124
Int'l Code: 1961-015J
Perigee: 731.5 km
Apogee: 832.2 km
Inclination: 66.5 °
Period: 100.3 minutes
Semi major axis: 7152 km
RCS: 0.1021 m2 (medium)
Launch date: June 29, 1961
Source: United States (US)
Launch site: AIR FORCE EASTERN TEST RANGE (AFETR)

Note: This is SATELLITE DEBRIS
Your satellite tracking list
SL-12 R/B(AUX MOTOR)
Track 1 satellite(s)




NASA's NSSDC Master Catalog

Two Line Element Set (TLE):
1 00124U 61015J   25199.01099944  .00000474  00000-0  19113-3 0  9995
2 00124  66.5442  51.2860 0070408 357.6550   2.4209 14.35095914310965
Source of the keplerian elements: AFSPC